This is the latest recevied weather packets stored in our database for station/object NE1CU. If no packets are shown the sender has not sent any weather packets the latest 10 day(s).
| Time | Temp. | Humidity | Pressure | Rain* | Wind** | Luminosity | Snow |
|---|---|---|---|---|---|---|---|
| 1778030490 | 17.22° C | 65% | 1010.3 hPa | 0 mm | - | 0 W/m² | - |
| 1778030188 | 17.22° C | 65% | 1010.2 hPa | 0 mm | - | 0 W/m² | - |
| 1778029884 | 17.22° C | 64% | 1010.1 hPa | 0 mm | - | 0 W/m² | - |
| 1778029583 | 17.22° C | 65% | 1010.1 hPa | 0 mm | - | 0 W/m² | - |
| 1778029279 | 17.22° C | 65% | 1010.1 hPa | 0 mm | - | 0 W/m² | - |
| 1778028976 | 17.22° C | 64% | 1010.1 hPa | 0 mm | - | 0 W/m² | - |
| 1778028672 | 17.22° C | 64% | 1010 hPa | 0 mm | - | 0 W/m² | - |
| 1778028369 | 17.22° C | 63% | 1009.9 hPa | 0 mm | - | 0 W/m² | - |
| 1778028066 | 17.78° C | 63% | 1009.8 hPa | 0 mm | - | 0 W/m² | - |
| 1778027763 | 17.78° C | 63% | 1009.7 hPa | 0 mm | - | 0 W/m² | - |
| 1778027459 | 17.22° C | 63% | 1009.8 hPa | 0 mm | - | 0 W/m² | - |
| 1778027155 | 17.22° C | 64% | 1009.6 hPa | 0 mm | - | 0 W/m² | - |
| 1778026851 | 17.22° C | 64% | 1009.7 hPa | 0 mm | - | 0 W/m² | - |
| 1778026547 | 17.22° C | 64% | 1009.8 hPa | 0 mm | - | 0 W/m² | - |
| 1778026245 | 17.22° C | 64% | 1009.6 hPa | 0 mm | - | 0 W/m² | - |
| 1778025942 | 17.22° C | 64% | 1009.5 hPa | 0 mm | - | 1 W/m² | - |
| 1778025639 | 17.22° C | 63% | 1009.4 hPa | 0 mm | - | 1 W/m² | - |
| 1778025337 | 17.22° C | 62% | 1009.2 hPa | 0 mm | - | 2 W/m² | - |
| 1778025034 | 17.78° C | 62% | 1009.2 hPa | 0 mm | - | 4 W/m² | - |
| 1778024731 | 17.78° C | 62% | 1009 hPa | 0 mm | - | 7 W/m² | - |
| 1778024427 | 17.78° C | 62% | 1009.1 hPa | 0 mm | - | 9 W/m² | - |
| 1778024125 | 17.78° C | 61% | 1009.1 hPa | 0 mm | - | 13 W/m² | - |
| 1778023823 | 17.78° C | 61% | 1008.7 hPa | 0 mm | - | 18 W/m² | - |
| 1778023520 | 17.78° C | 61% | 1008.7 hPa | 0 mm | - | 22 W/m² | - |
| 1778023217 | 17.78° C | 61% | 1008.8 hPa | 0 mm | - | 27 W/m² | - |
* Rain latest hour (hover to see other rain measurements)
** Current wind speed in m/s (hover to see current wind gust speed)